User: anonymous   Login
Location: Unspecified
(0.0000°N, 0.0000°E)
Time: 19:57:38
(UTC+00:00)
Language:

Gonets-D1 - Orbit

View from above orbital plane
View from above orbital plane
View from above satellite
View from above satellite

Ground track
Ground track

The orbit data is extracted from the following two-line orbital elements,

1 23787U 96009A   18171.71313746 +.00000033 +00000-0 +12385-3 0  9999
2 23787 082.5763 007.5605 0010166 191.0893 168.9976 12.64034297030577
Epoch (UTC): 20 June 2018 17:06:55
Eccentricity: 0.0010166
inclination: 82.5763°
perigee height: 1398 km
apogee height: 1414 km
right ascension of ascending node: 7.5605°
argument of perigee: 191.0893°
revolutions per day: 12.64034297
mean anomaly at epoch: 168.9976°
orbit number at epoch: 3057

The dashed part of the orbit path shows where the satellite is in the earth's shadow,  

DLR